Time,TemperatureF,DewpointF,PressureIn,WindDirection,WindDirectionDegrees,WindSpeedMPH,WindSpeedGustMPH,Humidity,HourlyPrecipIn,Conditions,Clouds,dailyrainin,SoftwareType,DateUTC
2013-04-25 00:01:00,50.2,49.1,29.68,ESE,119,2.0,9.0,96,0.00,,,0.00,meteohub,2013-04-25 04:01:00,
2013-04-25 00:02:00,50.2,49.1,29.68,SSE,167,2.0,9.0,96,0.00,,,0.00,meteohub,2013-04-25 04:02:00,
2013-04-25 00:07:00,50.2,49.1,29.68,SSE,153,2.0,9.0,96,0.00,,,0.00,meteohub,2013-04-25 04:07:00,
2013-04-25 00:12:00,50.2,49.1,29.68,SE,138,3.0,8.0,96,0.00,,,0.00,meteohub,2013-04-25 04:12:00,
2013-04-25 00:17:00,50.2,49.1,29.68,SSE,147,4.0,9.0,96,0.00,,,0.00,meteohub,2013-04-25 04:17:00,
2013-04-25 00:22:00,50.2,49.1,29.68,ESE,121,4.0,9.0,96,0.00,,,0.00,meteohub,2013-04-25 04:22:00,
2013-04-25 00:27:00,50.2,49.1,29.67,SE,124,1.0,9.0,96,0.00,,,0.00,meteohub,2013-04-25 04:27:00,
2013-04-25 00:32:00,50.2,49.1,29.67,SSE,167,3.0,9.0,96,0.00,,,0.00,meteohub,2013-04-25 04:32:00,
2013-04-25 00:37:00,50.2,49.1,29.67,SSE,162,4.0,9.0,96,0.00,,,0.00,meteohub,2013-04-25 04:37:00,
2013-04-25 00:42:00,50.2,49.1,29.67,SE,130,1.0,9.0,96,0.00,,,0.00,meteohub,2013-04-25 04:42:00,
2013-04-25 00:47:00,50.2,49.1,29.67,East,101,9.0,9.0,96,0.00,,,0.00,meteohub,2013-04-25 04:47:00,
2013-04-25 00:52:00,50.2,48.7,29.66,SE,132,3.0,11.0,95,0.00,,,0.00,meteohub,2013-04-25 04:52:00,
2013-04-25 00:57:00,50.0,48.6,29.66,SE,140,4.0,11.0,95,0.00,,,0.00,meteohub,2013-04-25 04:57:00,
2013-04-25 01:02:00,50.0,48.6,29.66,ESE,112,4.0,11.0,95,0.00,,,0.00,meteohub,2013-04-25 05:02:00,
2013-04-25 01:07:00,50.0,48.6,29.66,ESE,115,5.0,12.0,95,0.00,,,0.00,meteohub,2013-04-25 05:07:00,
2013-04-25 01:12:00,49.8,48.4,29.66,SW,217,4.0,12.0,95,0.00,,,0.00,meteohub,2013-04-25 05:12:00,
2013-04-25 01:17:00,49.8,48.4,29.66,SE,146,3.0,8.0,95,0.00,,,0.00,meteohub,2013-04-25 05:17:00,
2013-04-25 01:22:00,49.8,48.4,29.66,South,176,5.0,9.0,95,0.00,,,0.00,meteohub,2013-04-25 05:22:00,
2013-04-25 01:27:00,49.8,48.4,29.67,SSE,155,0.0,9.0,95,0.00,,,0.00,meteohub,2013-04-25 05:27:00,
2013-04-25 01:32:00,49.6,48.2,29.67,South,191,2.0,9.0,95,0.00,,,0.00,meteohub,2013-04-25 05:32:00,
2013-04-25 01:37:00,49.6,48.2,29.67,ESE,106,3.0,9.0,95,0.00,,,0.00,meteohub,2013-04-25 05:37:00,
2013-04-25 01:42:00,49.6,48.2,29.67,South,175,4.0,9.0,95,0.00,,,0.00,meteohub,2013-04-25 05:42:00,
2013-04-25 01:47:00,49.6,48.2,29.67,ESE,122,2.0,9.0,95,0.00,,,0.00,meteohub,2013-04-25 05:47:00,
2013-04-25 01:52:00,49.6,48.2,29.66,ESE,121,4.0,10.0,95,0.00,,,0.00,meteohub,2013-04-25 05:52:00,
2013-04-25 01:57:00,49.6,48.2,29.66,ESE,116,3.0,11.0,95,0.00,,,0.00,meteohub,2013-04-25 05:57:00,
2013-04-25 02:02:00,49.6,48.6,29.66,SSE,156,2.0,11.0,96,0.00,,,0.00,meteohub,2013-04-25 06:02:00,
2013-04-25 02:07:00,49.6,48.6,29.66,SE,141,4.0,11.0,96,0.00,,,0.00,meteohub,2013-04-25 06:07:00,
2013-04-25 02:12:00,49.5,48.4,29.66,SE,138,3.0,10.0,96,0.00,,,0.00,meteohub,2013-04-25 06:12:00,
2013-04-25 02:17:00,49.5,48.0,29.65,SW,217,4.0,10.0,95,0.00,,,0.00,meteohub,2013-04-25 06:17:00,
2013-04-25 02:22:00,49.5,48.0,29.66,SE,144,2.0,10.0,95,0.00,,,0.00,meteohub,2013-04-25 06:22:00,
2013-04-25 02:27:00,49.3,47.8,29.66,SE,136,3.0,10.0,95,0.00,,,0.00,meteohub,2013-04-25 06:27:00,
2013-04-25 02:32:00,49.3,47.8,29.65,ESE,111,3.0,9.0,95,0.00,,,0.00,meteohub,2013-04-25 06:32:00,
2013-04-25 02:37:00,49.3,47.8,29.65,SE,132,4.0,8.0,95,0.00,,,0.00,meteohub,2013-04-25 06:37:00,
2013-04-25 02:43:00,49.3,47.8,29.65,SSE,159,3.0,8.0,95,0.00,,,0.00,meteohub,2013-04-25 06:43:00,
2013-04-25 02:48:00,49.3,48.2,29.65,ESE,115,3.0,8.0,96,0.00,,,0.00,meteohub,2013-04-25 06:48:00,
2013-04-25 02:53:00,49.3,48.2,29.65,SSE,153,0.0,8.0,96,0.00,,,0.00,meteohub,2013-04-25 06:53:00,
2013-04-25 02:58:00,49.3,48.2,29.65,SE,139,0.0,9.0,96,0.00,,,0.00,meteohub,2013-04-25 06:58:00,
2013-04-25 03:03:00,49.1,48.0,29.65,SE,139,0.0,9.0,96,0.00,,,0.00,meteohub,2013-04-25 07:03:00,
2013-04-25 03:08:00,49.1,48.0,29.65,SE,128,1.0,7.0,96,0.00,,,0.00,meteohub,2013-04-25 07:08:00,
2013-04-25 03:13:00,48.9,47.8,29.65,ESE,119,0.0,7.0,96,0.00,,,0.00,meteohub,2013-04-25 07:13:00,
2013-04-25 03:18:00,48.9,47.8,29.64,South,176,2.0,7.0,96,0.00,,,0.00,meteohub,2013-04-25 07:18:00,
2013-04-25 03:24:00,48.9,47.8,29.65,ESE,121,2.0,6.0,96,0.00,,,0.00,meteohub,2013-04-25 07:24:00,
2013-04-25 03:29:00,48.9,47.8,29.64,South,174,3.0,6.0,96,0.00,,,0.00,meteohub,2013-04-25 07:29:00,
2013-04-25 03:34:00,48.9,47.8,29.63,SE,140,6.0,7.0,96,0.00,,,0.00,meteohub,2013-04-25 07:34:00,
2013-04-25 03:39:00,48.9,47.8,29.63,SSE,153,2.0,9.0,96,0.00,,,0.00,meteohub,2013-04-25 07:39:00,
2013-04-25 03:44:00,48.9,47.8,29.62,SE,128,4.0,9.0,96,0.00,,,0.00,meteohub,2013-04-25 07:44:00,
2013-04-25 03:49:00,48.9,47.8,29.62,ESE,106,4.0,9.0,96,0.00,,,0.00,meteohub,2013-04-25 07:49:00,
2013-04-25 03:54:00,48.9,47.8,29.62,SE,124,4.0,8.0,96,0.00,,,0.00,meteohub,2013-04-25 07:54:00,
2013-04-25 04:00:00,48.9,47.8,29.61,ESE,121,3.0,8.0,96,0.00,,,0.00,meteohub,2013-04-25 08:00:00,
2013-04-25 04:05:00,48.9,47.8,29.61,SSE,159,2.0,9.0,96,0.00,,,0.00,meteohub,2013-04-25 08:05:00,
2013-04-25 04:10:00,48.9,47.8,29.60,SE,143,3.0,9.0,96,0.00,,,0.00,meteohub,2013-04-25 08:10:00,
2013-04-25 04:15:00,48.7,47.7,29.60,SSE,152,4.0,8.0,96,0.00,,,0.00,meteohub,2013-04-25 08:15:00,
2013-04-25 04:20:00,48.6,47.5,29.61,SSE,152,5.0,9.0,96,0.00,,,0.00,meteohub,2013-04-25 08:20:00,
2013-04-25 04:25:00,48.6,47.5,29.61,South,182,4.0,9.0,96,0.00,,,0.00,meteohub,2013-04-25 08:25:00,
2013-04-25 04:30:00,48.7,47.7,29.61,SSE,161,4.0,8.0,96,0.00,,,0.00,meteohub,2013-04-25 08:30:00,
2013-04-25 04:35:00,48.7,47.7,29.61,SSE,147,6.0,10.0,96,0.00,,,0.00,meteohub,2013-04-25 08:35:00,
2013-04-25 04:41:00,48.7,47.7,29.61,SSE,153,2.0,10.0,96,0.00,,,0.00,meteohub,2013-04-25 08:41:00,
2013-04-25 04:46:00,48.7,47.7,29.61,SE,125,8.0,10.0,96,0.00,,,0.00,meteohub,2013-04-25 08:46:00,
2013-04-25 04:51:00,48.7,47.3,29.63,SE,128,5.0,10.0,95,0.00,,,0.00,meteohub,2013-04-25 08:51:00,
2013-04-25 04:56:00,48.7,47.3,29.65,SSW,212,4.0,12.0,95,0.00,,,0.00,meteohub,2013-04-25 08:56:00,
2013-04-25 05:01:00,48.7,47.3,29.65,ESE,113,8.0,12.0,95,0.01,,,0.01,meteohub,2013-04-25 09:01:00,
2013-04-25 05:06:00,48.7,47.3,29.65,SW,220,3.0,12.0,95,0.01,,,0.01,meteohub,2013-04-25 09:06:00,
2013-04-25 05:11:00,48.7,47.3,29.65,ESE,121,11.0,11.0,95,0.01,,,0.01,meteohub,2013-04-25 09:11:00,
2013-04-25 05:16:00,48.7,47.7,29.64,SE,141,4.0,17.0,96,0.01,,,0.01,meteohub,2013-04-25 09:16:00,
2013-04-25 05:22:00,48.6,47.5,29.65,South,187,3.0,17.0,96,0.01,,,0.01,meteohub,2013-04-25 09:22:00,
2013-04-25 05:27:00,48.6,47.5,29.64,SSE,158,0.0,17.0,96,0.01,,,0.01,meteohub,2013-04-25 09:27:00,
2013-04-25 05:32:00,48.6,47.5,29.64,SSE,159,6.0,12.0,96,0.01,,,0.01,meteohub,2013-04-25 09:32:00,
2013-04-25 05:37:00,48.4,47.3,29.64,SE,130,5.0,12.0,96,0.01,,,0.01,meteohub,2013-04-25 09:37:00,
2013-04-25 05:42:00,48.4,47.3,29.65,ESE,107,7.0,10.0,96,0.01,,,0.01,meteohub,2013-04-25 09:42:00,
2013-04-25 05:47:00,48.4,47.3,29.65,SE,146,5.0,10.0,96,0.01,,,0.01,meteohub,2013-04-25 09:47:00,
2013-04-25 05:52:00,48.4,47.3,29.65,ESE,121,2.0,10.0,96,0.01,,,0.01,meteohub,2013-04-25 09:52:00,
2013-04-25 05:57:00,48.4,47.3,29.65,SE,132,6.0,10.0,96,0.01,,,0.01,meteohub,2013-04-25 09:57:00,
2013-04-25 06:02:00,48.4,47.3,29.65,SSE,149,6.0,10.0,96,0.00,,,0.01,meteohub,2013-04-25 10:02:00,
2013-04-25 06:07:00,48.4,46.9,29.65,South,191,3.0,11.0,95,0.00,,,0.01,meteohub,2013-04-25 10:07:00,
2013-04-25 06:12:00,48.4,47.3,29.65,SE,126,5.0,11.0,96,0.00,,,0.01,meteohub,2013-04-25 10:12:00,
2013-04-25 06:17:00,48.2,47.1,29.65,SSE,162,1.0,11.0,96,0.00,,,0.01,meteohub,2013-04-25 10:17:00,
2013-04-25 06:23:00,48.2,47.1,29.66,SE,132,4.0,11.0,96,0.00,,,0.01,meteohub,2013-04-25 10:23:00,
2013-04-25 06:28:00,48.2,47.1,29.67,SSW,202,5.0,10.0,96,0.01,,,0.02,meteohub,2013-04-25 10:28:00,
2013-04-25 06:33:00,48.2,47.1,29.68,SSE,154,1.0,10.0,96,0.01,,,0.02,meteohub,2013-04-25 10:33:00,
2013-04-25 06:38:00,48.2,47.1,29.68,South,184,6.0,10.0,96,0.01,,,0.02,meteohub,2013-04-25 10:38:00,
2013-04-25 06:43:00,48.0,46.9,29.68,SSW,195,4.0,10.0,96,0.02,,,0.03,meteohub,2013-04-25 10:43:00,
2013-04-25 06:48:00,48.0,46.9,29.68,SSW,200,2.0,10.0,96,0.02,,,0.03,meteohub,2013-04-25 10:48:00,
2013-04-25 06:53:00,48.0,46.9,29.69,South,180,6.0,9.0,96,0.03,,,0.04,meteohub,2013-04-25 10:53:00,
2013-04-25 06:58:00,48.0,46.9,29.70,South,183,3.0,10.0,96,0.03,,,0.04,meteohub,2013-04-25 10:58:00,
2013-04-25 07:04:00,47.8,46.8,29.71,WSW,238,6.0,10.0,96,0.03,,,0.04,meteohub,2013-04-25 11:04:00,
2013-04-25 07:09:00,47.8,46.8,29.69,SSW,198,5.0,10.0,96,0.03,,,0.04,meteohub,2013-04-25 11:09:00,
2013-04-25 07:14:00,47.8,46.8,29.69,SE,146,2.0,9.0,96,0.03,,,0.04,meteohub,2013-04-25 11:14:00,
2013-04-25 07:19:00,47.8,46.9,29.71,SW,221,2.0,8.0,97,0.03,,,0.04,meteohub,2013-04-25 11:19:00,
2013-04-25 07:24:00,47.8,46.8,29.72,SSW,205,6.0,8.0,96,0.03,,,0.04,meteohub,2013-04-25 11:24:00,
2013-04-25 07:29:00,48.0,46.6,29.73,SW,223,5.0,8.0,95,0.02,,,0.04,meteohub,2013-04-25 11:29:00,
2013-04-25 07:34:00,48.6,46.6,29.73,SSW,207,1.0,10.0,93,0.02,,,0.04,meteohub,2013-04-25 11:34:00,
2013-04-25 07:39:00,48.6,46.0,29.73,SW,215,7.0,10.0,91,0.02,,,0.04,meteohub,2013-04-25 11:39:00,
2013-04-25 07:45:00,48.4,45.9,29.74,SSW,207,4.0,10.0,91,0.01,,,0.04,meteohub,2013-04-25 11:45:00,
2013-04-25 07:50:00,48.0,45.1,29.74,South,175,5.0,10.0,90,0.00,,,0.04,meteohub,2013-04-25 11:50:00,
2013-04-25 07:55:00,47.8,44.8,29.74,SW,214,5.0,10.0,89,0.00,,,0.04,meteohub,2013-04-25 11:55:00,
2013-04-25 08:00:00,47.8,44.4,29.75,West,274,3.0,8.0,88,0.00,,,0.04,meteohub,2013-04-25 12:00:00,
2013-04-25 08:05:00,47.8,43.9,29.75,SW,231,3.0,8.0,86,0.00,,,0.04,meteohub,2013-04-25 12:05:00,
2013-04-25 08:10:00,47.7,43.0,29.75,SSW,197,2.0,9.0,84,0.00,,,0.04,meteohub,2013-04-25 12:10:00,
2013-04-25 08:15:00,47.5,42.8,29.75,SW,228,4.0,9.0,84,0.00,,,0.04,meteohub,2013-04-25 12:15:00,
2013-04-25 08:20:00,47.3,42.8,29.75,South,181,5.0,11.0,84,0.00,,,0.04,meteohub,2013-04-25 12:20:00,
2013-04-25 08:26:00,47.1,42.6,29.76,SSW,210,7.0,12.0,84,0.00,,,0.04,meteohub,2013-04-25 12:26:00,
2013-04-25 08:31:00,46.9,42.1,29.76,West,263,4.0,12.0,83,0.00,,,0.04,meteohub,2013-04-25 12:31:00,
2013-04-25 08:36:00,46.9,41.7,29.76,SW,228,6.0,12.0,82,0.00,,,0.04,meteohub,2013-04-25 12:36:00,
2013-04-25 08:41:00,47.1,41.5,29.77,SSW,207,1.0,12.0,81,0.00,,,0.04,meteohub,2013-04-25 12:41:00,
2013-04-25 08:46:00,47.3,40.8,29.77,SW,223,7.0,12.0,78,0.00,,,0.04,meteohub,2013-04-25 12:46:00,
2013-04-25 08:51:00,47.5,39.9,29.77,South,186,5.0,13.0,75,0.00,,,0.04,meteohub,2013-04-25 12:51:00,
2013-04-25 08:56:00,47.7,39.7,29.77,SSW,211,12.0,16.0,74,0.00,,,0.04,meteohub,2013-04-25 12:56:00,
2013-04-25 09:01:00,48.0,39.7,29.78,South,184,11.0,18.0,73,0.00,,,0.04,meteohub,2013-04-25 13:01:00,
2013-04-25 09:07:00,48.6,40.3,29.78,WSW,257,5.0,18.0,73,0.00,,,0.04,meteohub,2013-04-25 13:07:00,
2013-04-25 09:12:00,48.9,40.6,29.78,SSW,194,7.0,18.0,73,0.00,,,0.04,meteohub,2013-04-25 13:12:00,
2013-04-25 09:17:00,48.9,39.6,29.79,SW,216,6.0,18.0,70,0.00,,,0.04,meteohub,2013-04-25 13:17:00,
2013-04-25 09:22:00,48.6,38.5,29.79,West,273,6.0,13.0,68,0.00,,,0.04,meteohub,2013-04-25 13:22:00,
2013-04-25 09:27:00,48.4,37.9,29.80,SSW,194,3.0,19.0,67,0.00,,,0.04,meteohub,2013-04-25 13:27:00,
2013-04-25 09:32:00,48.4,37.9,29.80,West,269,1.0,19.0,67,0.00,,,0.04,meteohub,2013-04-25 13:32:00,
2013-04-25 09:37:00,48.6,38.5,29.80,NNE,19,2.0,19.0,68,0.00,,,0.04,meteohub,2013-04-25 13:37:00,
2013-04-25 09:42:00,48.7,36.7,29.81,SSW,209,8.0,14.0,63,0.00,,,0.04,meteohub,2013-04-25 13:42:00,
2013-04-25 09:47:00,48.4,36.3,29.82,SW,233,5.0,18.0,63,0.00,,,0.04,meteohub,2013-04-25 13:47:00,
2013-04-25 09:52:00,48.6,37.4,29.82,WSW,240,5.0,18.0,65,0.00,,,0.04,meteohub,2013-04-25 13:52:00,
2013-04-25 09:57:00,48.7,36.3,29.83,West,277,7.0,18.0,62,0.00,,,0.04,meteohub,2013-04-25 13:57:00,
2013-04-25 10:02:00,48.0,35.2,29.84,WNW,291,2.0,14.0,61,0.00,,,0.04,meteohub,2013-04-25 14:02:00,
2013-04-25 10:07:00,48.0,36.0,29.84,WSW,244,5.0,17.0,63,0.00,,,0.04,meteohub,2013-04-25 14:07:00,
2013-04-25 10:12:00,47.1,34.3,29.84,West,273,4.0,18.0,61,0.00,,,0.04,meteohub,2013-04-25 14:12:00,
2013-04-25 10:17:00,46.8,33.6,29.84,NW,304,8.0,18.0,60,0.00,,,0.04,meteohub,2013-04-25 14:17:00,
2013-04-25 10:22:00,46.2,33.1,29.85,SW,234,4.0,18.0,60,0.00,,,0.04,meteohub,2013-04-25 14:22:00,
2013-04-25 10:27:00,46.2,33.1,29.86,West,281,5.0,17.0,60,0.00,,,0.04,meteohub,2013-04-25 14:27:00,
2013-04-25 10:32:00,46.0,32.5,29.85,SSW,213,2.0,16.0,59,0.00,,,0.04,meteohub,2013-04-25 14:32:00,
2013-04-25 10:37:00,46.0,32.9,29.86,West,259,5.0,18.0,60,0.00,,,0.04,meteohub,2013-04-25 14:37:00,
2013-04-25 10:42:00,45.9,32.7,29.87,WNW,290,5.0,19.0,60,0.00,,,0.04,meteohub,2013-04-25 14:42:00,
2013-04-25 10:47:00,46.2,32.7,29.87,West,268,11.0,21.0,59,0.00,,,0.04,meteohub,2013-04-25 14:47:00,
2013-04-25 10:52:00,46.4,32.4,29.87,WSW,239,7.0,21.0,58,0.00,,,0.04,meteohub,2013-04-25 14:52:00,
2013-04-25 10:57:00,46.8,33.3,29.88,NNW,341,3.0,17.0,59,0.00,,,0.04,meteohub,2013-04-25 14:57:00,
2013-04-25 11:02:00,46.6,32.2,29.88,NW,308,13.0,15.0,57,0.00,,,0.04,meteohub,2013-04-25 15:02:00,
2013-04-25 11:07:00,46.4,32.9,29.89,NNE,17,4.0,16.0,59,0.00,,,0.04,meteohub,2013-04-25 15:07:00,
2013-04-25 11:12:00,46.6,32.5,29.89,West,277,8.0,17.0,58,0.00,,,0.04,meteohub,2013-04-25 15:12:00,
2013-04-25 11:17:00,46.8,32.7,29.89,WNW,285,16.0,19.0,58,0.00,,,0.04,meteohub,2013-04-25 15:17:00,
2013-04-25 11:22:00,46.9,32.9,29.89,WNW,296,8.0,19.0,58,0.00,,,0.04,meteohub,2013-04-25 15:22:00,
2013-04-25 11:27:00,46.9,32.5,29.88,West,263,10.0,19.0,57,0.00,,,0.04,meteohub,2013-04-25 15:27:00,
2013-04-25 11:32:00,47.5,33.1,29.89,NNE,15,7.0,19.0,57,0.00,,,0.04,meteohub,2013-04-25 15:32:00,
2013-04-25 11:37:00,47.5,33.1,29.90,WSW,248,4.0,18.0,57,0.00,,,0.04,meteohub,2013-04-25 15:37:00,
2013-04-25 11:42:00,47.5,33.1,29.91,West,274,6.0,16.0,57,0.00,,,0.04,meteohub,2013-04-25 15:42:00,
2013-04-25 11:47:00,47.5,33.4,29.91,WNW,299,7.0,15.0,58,0.00,,,0.04,meteohub,2013-04-25 15:47:00,
2013-04-25 11:52:00,47.5,32.5,29.91,SW,232,11.0,23.0,56,0.00,,,0.04,meteohub,2013-04-25 15:52:00,
2013-04-25 11:57:00,47.8,32.5,29.92,WSW,257,8.0,23.0,55,0.00,,,0.04,meteohub,2013-04-25 15:57:00,
2013-04-25 12:02:00,47.7,32.7,29.92,SW,227,11.0,23.0,56,0.00,,,0.04,meteohub,2013-04-25 16:02:00,
2013-04-25 12:07:00,48.2,32.4,29.92,West,279,12.0,19.0,54,0.00,,,0.04,meteohub,2013-04-25 16:07:00,
2013-04-25 12:12:00,48.4,33.4,29.92,SE,131,1.0,19.0,56,0.00,,,0.04,meteohub,2013-04-25 16:12:00,
2013-04-25 12:17:00,49.1,32.7,29.93,WNW,288,11.0,19.0,53,0.00,,,0.04,meteohub,2013-04-25 16:17:00,
2013-04-25 12:22:00,49.5,32.5,29.93,NNE,30,3.0,19.0,52,0.00,,,0.04,meteohub,2013-04-25 16:22:00,
2013-04-25 12:27:00,49.1,32.7,29.93,WSW,252,4.0,17.0,53,0.00,,,0.04,meteohub,2013-04-25 16:27:00,
2013-04-25 12:32:00,48.9,32.0,29.94,West,275,1.0,18.0,52,0.00,,,0.04,meteohub,2013-04-25 16:32:00,
2013-04-25 12:37:00,49.1,32.2,29.94,WSW,246,6.0,19.0,52,0.00,,,0.04,meteohub,2013-04-25 16:37:00,
2013-04-25 12:42:00,49.3,32.9,29.94,SW,227,8.0,19.0,53,0.00,,,0.04,meteohub,2013-04-25 16:42:00,
2013-04-25 12:47:00,49.5,32.0,29.94,NNW,332,7.0,19.0,51,0.00,,,0.04,meteohub,2013-04-25 16:47:00,
2013-04-25 12:52:00,49.8,32.9,29.95,West,281,12.0,19.0,52,0.00,,,0.04,meteohub,2013-04-25 16:52:00,
2013-04-25 12:57:00,50.2,32.7,29.96,WSW,251,12.0,19.0,51,0.00,,,0.04,meteohub,2013-04-25 16:57:00,
2013-04-25 13:02:00,50.0,33.1,29.95,SW,223,7.0,19.0,52,0.00,,,0.04,meteohub,2013-04-25 17:02:00,
2013-04-25 13:07:00,50.0,33.1,29.96,NNW,336,3.0,16.0,52,0.00,,,0.04,meteohub,2013-04-25 17:07:00,
2013-04-25 13:12:00,49.8,32.0,29.97,West,263,1.0,16.0,50,0.00,,,0.04,meteohub,2013-04-25 17:12:00,
2013-04-25 13:17:00,50.2,32.2,29.97,WSW,238,6.0,18.0,50,0.00,,,0.04,meteohub,2013-04-25 17:17:00,
2013-04-25 13:22:00,50.2,32.2,29.96,North,350,1.0,18.0,50,0.00,,,0.04,meteohub,2013-04-25 17:22:00,
2013-04-25 13:27:00,50.7,32.2,29.96,NNE,25,3.0,18.0,49,0.00,,,0.04,meteohub,2013-04-25 17:27:00,
2013-04-25 13:32:00,51.1,32.5,29.97,SW,224,7.0,11.0,49,0.00,,,0.04,meteohub,2013-04-25 17:32:00,
2013-04-25 13:37:00,50.9,31.8,29.97,North,10,9.0,13.0,48,0.00,,,0.04,meteohub,2013-04-25 17:37:00,
2013-04-25 13:42:00,50.7,32.2,29.98,ESE,115,1.0,14.0,49,0.00,,,0.04,meteohub,2013-04-25 17:42:00,
2013-04-25 13:47:00,51.1,31.6,29.98,WNW,284,3.0,14.0,47,0.00,,,0.04,meteohub,2013-04-25 17:47:00,
2013-04-25 13:52:00,50.4,31.5,29.98,NNW,337,2.0,16.0,48,0.00,,,0.04,meteohub,2013-04-25 17:52:00,
2013-04-25 13:57:00,50.5,32.0,29.98,SW,229,13.0,16.0,49,0.00,,,0.04,meteohub,2013-04-25 17:57:00,
2013-04-25 14:02:00,50.4,32.0,29.98,WNW,299,4.0,16.0,49,0.00,,,0.04,meteohub,2013-04-25 18:02:00,
2013-04-25 14:07:00,50.7,32.2,29.99,West,259,4.0,14.0,49,0.00,,,0.04,meteohub,2013-04-25 18:07:00,
2013-04-25 14:12:00,51.4,31.3,29.99,West,265,14.0,14.0,46,0.00,,,0.04,meteohub,2013-04-25 18:12:00,
2013-04-25 14:17:00,51.3,32.2,29.99,NW,321,1.0,17.0,48,0.00,,,0.04,meteohub,2013-04-25 18:17:00,
2013-04-25 14:22:00,51.3,31.1,29.99,WNW,293,6.0,17.0,46,0.00,,,0.04,meteohub,2013-04-25 18:22:00,
2013-04-25 14:27:00,51.3,31.6,29.99,NNW,328,8.0,17.0,47,0.00,,,0.04,meteohub,2013-04-25 18:27:00,
2013-04-25 14:32:00,51.3,31.1,29.99,SW,224,9.0,19.0,46,0.00,,,0.04,meteohub,2013-04-25 18:32:00,
2013-04-25 14:37:00,51.1,31.1,30.00,SW,230,3.0,19.0,46,0.00,,,0.04,meteohub,2013-04-25 18:37:00,
2013-04-25 14:42:00,50.4,30.4,30.01,NW,321,5.0,21.0,46,0.00,,,0.04,meteohub,2013-04-25 18:42:00,
2013-04-25 14:47:00,49.8,30.4,30.01,West,266,6.0,21.0,47,0.00,,,0.04,meteohub,2013-04-25 18:47:00,
2013-04-25 14:52:00,49.5,30.6,30.01,WSW,256,10.0,21.0,48,0.00,,,0.04,meteohub,2013-04-25 18:52:00,
2013-04-25 14:57:00,49.5,30.6,30.01,WSW,238,15.0,19.0,48,0.00,,,0.04,meteohub,2013-04-25 18:57:00,
2013-04-25 15:02:00,49.6,31.3,30.01,West,273,1.0,19.0,49,0.00,,,0.04,meteohub,2013-04-25 19:02:00,
2013-04-25 15:07:00,50.4,30.9,30.01,WNW,298,8.0,18.0,47,0.00,,,0.04,meteohub,2013-04-25 19:07:00,
2013-04-25 15:12:00,50.7,31.3,30.01,West,277,2.0,18.0,47,0.00,,,0.04,meteohub,2013-04-25 19:12:00,
2013-04-25 15:17:00,51.3,31.1,30.01,WSW,256,3.0,12.0,46,0.00,,,0.04,meteohub,2013-04-25 19:17:00,
2013-04-25 15:22:00,51.4,30.7,30.01,SW,236,2.0,12.0,45,0.00,,,0.04,meteohub,2013-04-25 19:22:00,
2013-04-25 15:27:00,51.3,30.6,30.02,WNW,297,13.0,13.0,45,0.00,,,0.04,meteohub,2013-04-25 19:27:00,
2013-04-25 15:32:00,51.1,31.1,30.02,West,261,0.0,18.0,46,0.00,,,0.04,meteohub,2013-04-25 19:32:00,
2013-04-25 15:37:00,51.3,30.6,30.03,WNW,290,7.0,18.0,45,0.00,,,0.04,meteohub,2013-04-25 19:37:00,
2013-04-25 15:42:00,51.1,31.1,30.02,NW,308,4.0,18.0,46,0.00,,,0.04,meteohub,2013-04-25 19:42:00,
2013-04-25 15:47:00,51.4,30.2,30.03,WNW,298,5.0,13.0,44,0.00,,,0.04,meteohub,2013-04-25 19:47:00,
2013-04-25 15:52:00,51.6,30.4,30.03,WNW,292,8.0,14.0,44,0.00,,,0.04,meteohub,2013-04-25 19:52:00,
2013-04-25 15:57:00,50.9,29.8,30.03,WSW,248,1.0,14.0,44,0.00,,,0.04,meteohub,2013-04-25 19:57:00,
2013-04-25 16:02:00,51.1,30.6,30.03,NNE,28,1.0,10.0,45,0.00,,,0.04,meteohub,2013-04-25 20:02:00,
2013-04-25 16:07:00,51.6,30.4,30.04,WNW,288,2.0,10.0,44,0.00,,,0.04,meteohub,2013-04-25 20:07:00,
2013-04-25 16:12:00,52.0,29.7,30.04,WSW,240,1.0,9.0,42,0.00,,,0.04,meteohub,2013-04-25 20:12:00,
2013-04-25 16:17:00,52.5,30.7,30.04,West,262,2.0,8.0,43,0.00,,,0.04,meteohub,2013-04-25 20:17:00,
2013-04-25 16:22:00,52.5,28.2,30.04,West,273,7.0,13.0,39,0.00,,,0.04,meteohub,2013-04-25 20:22:00,
2013-04-25 16:27:00,52.0,28.9,30.04,WSW,254,4.0,14.0,41,0.00,,,0.04,meteohub,2013-04-25 20:27:00,
2013-04-25 16:32:00,51.6,28.8,30.05,North,355,6.0,14.0,41,0.00,,,0.04,meteohub,2013-04-25 20:32:00,
2013-04-25 16:37:00,51.3,28.4,30.05,SSW,211,7.0,17.0,41,0.00,,,0.04,meteohub,2013-04-25 20:37:00,
2013-04-25 16:42:00,51.4,29.1,30.05,West,269,7.0,17.0,42,0.00,,,0.04,meteohub,2013-04-25 20:42:00,
2013-04-25 16:48:00,52.0,28.4,30.06,NW,305,5.0,15.0,40,0.00,,,0.04,meteohub,2013-04-25 20:48:00,
2013-04-25 16:53:00,52.0,28.9,30.06,WNW,295,0.0,12.0,41,0.00,,,0.04,meteohub,2013-04-25 20:53:00,
2013-04-25 16:58:00,52.0,28.4,30.06,NW,309,2.0,10.0,40,0.00,,,0.04,meteohub,2013-04-25 20:58:00,
2013-04-25 17:03:00,51.8,28.8,30.06,South,185,2.0,10.0,41,0.00,,,0.04,meteohub,2013-04-25 21:03:00,
2013-04-25 17:08:00,52.0,28.4,30.07,North,0,3.0,12.0,40,0.00,,,0.04,meteohub,2013-04-25 21:08:00,
2013-04-25 17:13:00,52.0,27.9,30.07,NNE,14,4.0,12.0,39,0.00,,,0.04,meteohub,2013-04-25 21:13:00,
2013-04-25 17:18:00,52.2,27.9,30.07,WSW,250,5.0,9.0,39,0.00,,,0.04,meteohub,2013-04-25 21:18:00,
2013-04-25 17:23:00,52.0,28.4,30.08,WSW,244,2.0,9.0,40,0.00,,,0.04,meteohub,2013-04-25 21:23:00,
2013-04-25 17:29:00,51.6,28.0,30.08,NW,317,9.0,9.0,40,0.00,,,0.04,meteohub,2013-04-25 21:29:00,
2013-04-25 17:34:00,51.4,27.9,30.09,West,273,9.0,14.0,40,0.00,,,0.04,meteohub,2013-04-25 21:34:00,
2013-04-25 17:39:00,51.3,27.7,30.09,NW,321,3.0,14.0,40,0.00,,,0.04,meteohub,2013-04-25 21:39:00,
2013-04-25 17:44:00,51.4,27.9,30.09,NW,316,5.0,14.0,40,0.00,,,0.04,meteohub,2013-04-25 21:44:00,
2013-04-25 17:49:00,51.4,27.9,30.09,SW,232,2.0,10.0,40,0.00,,,0.04,meteohub,2013-04-25 21:49:00,
2013-04-25 17:54:00,51.3,27.7,30.09,WNW,295,2.0,10.0,40,0.00,,,0.04,meteohub,2013-04-25 21:54:00,
2013-04-25 17:59:00,50.7,27.3,30.09,WNW,296,11.0,11.0,40,0.00,,,0.04,meteohub,2013-04-25 21:59:00,
2013-04-25 18:04:00,50.4,27.5,30.10,WNW,295,2.0,10.0,41,0.00,,,0.04,meteohub,2013-04-25 22:04:00,
2013-04-25 18:10:00,50.5,27.7,30.11,NW,325,2.0,12.0,41,0.00,,,0.04,meteohub,2013-04-25 22:10:00,
2013-04-25 18:15:00,50.4,27.5,30.11,WSW,258,5.0,12.0,41,0.00,,,0.04,meteohub,2013-04-25 22:15:00,
2013-04-25 18:20:00,50.0,27.1,30.11,North,5,3.0,9.0,41,0.00,,,0.04,meteohub,2013-04-25 22:20:00,
2013-04-25 18:25:00,50.0,27.1,30.11,NW,324,1.0,10.0,41,0.00,,,0.04,meteohub,2013-04-25 22:25:00,
2013-04-25 18:30:00,50.0,27.9,30.11,NNE,32,4.0,10.0,42,0.00,,,0.04,meteohub,2013-04-25 22:30:00,
2013-04-25 18:35:00,49.6,28.0,30.12,WSW,241,1.0,11.0,43,0.00,,,0.04,meteohub,2013-04-25 22:35:00,
2013-04-25 18:40:00,49.6,27.5,30.12,North,355,1.0,11.0,42,0.00,,,0.04,meteohub,2013-04-25 22:40:00,
2013-04-25 18:45:00,49.6,27.0,30.13,North,350,2.0,8.0,41,0.00,,,0.04,meteohub,2013-04-25 22:45:00,
2013-04-25 18:51:00,49.5,27.3,30.13,West,271,4.0,10.0,42,0.00,,,0.04,meteohub,2013-04-25 22:51:00,
2013-04-25 18:56:00,48.9,26.8,30.13,West,275,2.0,10.0,42,0.00,,,0.04,meteohub,2013-04-25 22:56:00,
2013-04-25 19:01:00,48.6,26.4,30.14,NNW,348,2.0,10.0,42,0.00,,,0.04,meteohub,2013-04-25 23:01:00,
2013-04-25 19:06:00,48.0,26.1,30.14,NW,321,0.0,10.0,42,0.00,,,0.04,meteohub,2013-04-25 23:06:00,
2013-04-25 19:11:00,47.8,25.9,30.14,North,5,3.0,10.0,42,0.00,,,0.04,meteohub,2013-04-25 23:11:00,
2013-04-25 19:16:00,47.7,26.2,30.15,North,0,0.0,8.0,43,0.00,,,0.04,meteohub,2013-04-25 23:16:00,
2013-04-25 19:21:00,47.3,25.9,30.15,North,355,0.0,8.0,43,0.00,,,0.04,meteohub,2013-04-25 23:21:00,
2013-04-25 19:27:00,46.9,26.2,30.16,NW,309,0.0,8.0,44,0.00,,,0.04,meteohub,2013-04-25 23:27:00,
2013-04-25 19:32:00,46.8,26.1,30.16,NW,304,0.0,4.0,44,0.00,,,0.04,meteohub,2013-04-25 23:32:00,
2013-04-25 19:37:00,46.4,27.3,30.17,NW,304,0.0,4.0,47,0.00,,,0.04,meteohub,2013-04-25 23:37:00,
2013-04-25 19:42:00,46.0,26.4,30.17,WNW,282,0.0,5.0,46,0.00,,,0.04,meteohub,2013-04-25 23:42:00,
2013-04-25 19:47:00,45.5,27.0,30.18,WNW,282,0.0,5.0,48,0.00,,,0.04,meteohub,2013-04-25 23:47:00,
2013-04-25 19:52:00,45.0,27.0,30.18,WNW,282,0.0,5.0,49,0.00,,,0.04,meteohub,2013-04-25 23:52:00,
2013-04-25 19:57:00,44.4,27.9,30.18,WNW,282,0.0,1.0,52,0.00,,,0.04,meteohub,2013-04-25 23:57:00,
2013-04-25 20:02:00,43.5,27.5,30.19,WNW,282,0.0,1.0,53,0.00,,,0.04,meteohub,2013-04-26 00:02:00,
2013-04-25 20:07:00,42.4,27.0,30.19,WNW,282,0.0,1.0,54,0.00,,,0.00,meteohub,2013-04-26 00:07:00,
2013-04-25 20:12:00,41.5,27.0,30.19,WNW,282,1.0,1.0,56,0.00,,,0.00,meteohub,2013-04-26 00:12:00,
2013-04-25 20:17:00,41.0,27.3,30.19,WNW,282,0.0,1.0,58,0.00,,,0.00,meteohub,2013-04-26 00:17:00,
2013-04-25 20:22:00,40.3,27.1,30.20,WNW,282,0.0,1.0,59,0.00,,,0.00,meteohub,2013-04-26 00:22:00,
2013-04-25 20:27:00,39.7,27.9,30.21,WNW,282,1.0,1.0,62,0.00,,,0.00,meteohub,2013-04-26 00:27:00,
2013-04-25 20:32:00,39.2,27.3,30.21,WNW,282,1.0,2.0,62,0.00,,,0.00,meteohub,2013-04-26 00:32:00,
2013-04-25 20:37:00,38.8,27.0,30.21,WNW,282,0.0,2.0,62,0.00,,,0.00,meteohub,2013-04-26 00:37:00,
2013-04-25 20:42:00,38.7,27.5,30.22,WNW,282,0.0,2.0,64,0.00,,,0.00,meteohub,2013-04-26 00:42:00,
2013-04-25 20:47:00,38.3,27.5,30.22,WNW,282,0.0,2.0,65,0.00,,,0.00,meteohub,2013-04-26 00:47:00,
2013-04-25 20:52:00,37.8,27.5,30.22,WNW,282,0.0,0.0,66,0.00,,,0.00,meteohub,2013-04-26 00:52:00,
2013-04-25 20:57:00,37.4,27.5,30.23,WNW,282,0.0,0.0,67,0.00,,,0.00,meteohub,2013-04-26 00:57:00,
2013-04-25 21:02:00,37.0,27.5,30.24,WNW,282,1.0,4.0,68,0.00,,,0.00,meteohub,2013-04-26 01:02:00,
2013-04-25 21:07:00,37.2,27.7,30.24,WNW,286,0.0,4.0,68,0.00,,,0.00,meteohub,2013-04-26 01:07:00,
2013-04-25 21:12:00,37.6,28.0,30.24,North,5,0.0,4.0,68,0.00,,,0.00,meteohub,2013-04-26 01:12:00,
2013-04-25 21:17:00,38.7,28.2,30.24,NNW,346,0.0,7.0,66,0.00,,,0.00,meteohub,2013-04-26 01:17:00,
2013-04-25 21:22:00,38.8,28.4,30.25,NNW,346,0.0,7.0,66,0.00,,,0.00,meteohub,2013-04-26 01:22:00,
2013-04-25 21:27:00,39.0,28.6,30.25,NNW,346,0.0,7.0,66,0.00,,,0.00,meteohub,2013-04-26 01:27:00,
2013-04-25 21:32:00,39.4,28.6,30.25,NNE,15,3.0,3.0,65,0.00,,,0.00,meteohub,2013-04-26 01:32:00,
2013-04-25 21:37:00,39.4,28.6,30.26,NNE,12,0.0,5.0,65,0.00,,,0.00,meteohub,2013-04-26 01:37:00,
2013-04-25 21:42:00,38.5,28.8,30.26,NNE,12,0.0,5.0,68,0.00,,,0.00,meteohub,2013-04-26 01:42:00,
2013-04-25 21:47:00,37.8,28.6,30.26,NNE,12,0.0,5.0,69,0.00,,,0.00,meteohub,2013-04-26 01:47:00,
2013-04-25 21:52:00,37.2,28.4,30.27,NNE,12,1.0,1.0,70,0.00,,,0.00,meteohub,2013-04-26 01:52:00,
2013-04-25 21:57:00,37.0,28.2,30.27,NNW,333,1.0,2.0,70,0.00,,,0.00,meteohub,2013-04-26 01:57:00,
2013-04-25 22:02:00,36.9,28.4,30.27,NNW,333,0.0,3.0,71,0.00,,,0.00,meteohub,2013-04-26 02:02:00,
2013-04-25 22:07:00,36.3,28.6,30.27,NNW,333,1.0,3.0,73,0.00,,,0.00,meteohub,2013-04-26 02:07:00,
2013-04-25 22:12:00,36.1,28.4,30.27,NNW,333,1.0,3.0,73,0.00,,,0.00,meteohub,2013-04-26 02:12:00,
2013-04-25 22:17:00,36.0,28.4,30.27,NNW,332,1.0,3.0,74,0.00,,,0.00,meteohub,2013-04-26 02:17:00,
2013-04-25 22:22:00,35.8,28.4,30.28,NNW,332,0.0,3.0,74,0.00,,,0.00,meteohub,2013-04-26 02:22:00,
2013-04-25 22:27:00,35.8,28.4,30.28,NNW,332,1.0,3.0,74,0.00,,,0.00,meteohub,2013-04-26 02:27:00,
2013-04-25 22:32:00,35.8,28.4,30.28,NNW,332,0.0,3.0,74,0.00,,,0.00,meteohub,2013-04-26 02:32:00,
2013-04-25 22:37:00,35.4,28.6,30.28,NNW,332,0.0,2.0,76,0.00,,,0.00,meteohub,2013-04-26 02:37:00,
2013-04-25 22:42:00,34.9,28.8,30.28,NNW,332,0.0,2.0,78,0.00,,,0.00,meteohub,2013-04-26 02:42:00,
2013-04-25 22:47:00,34.3,28.8,30.29,NNW,332,0.0,1.0,80,0.00,,,0.00,meteohub,2013-04-26 02:47:00,
2013-04-25 22:52:00,34.0,28.2,30.29,NNW,332,0.0,1.0,79,0.00,,,0.00,meteohub,2013-04-26 02:52:00,
2013-04-25 22:57:00,33.8,28.0,30.29,NNW,332,0.0,1.0,79,0.00,,,0.00,meteohub,2013-04-26 02:57:00,
2013-04-25 23:02:00,33.4,28.2,30.29,NNW,332,0.0,1.0,81,0.00,,,0.00,meteohub,2013-04-26 03:02:00,
2013-04-25 23:07:00,33.3,28.6,30.29,NNW,332,0.0,1.0,83,0.00,,,0.00,meteohub,2013-04-26 03:07:00,
2013-04-25 23:13:00,32.9,28.0,30.29,NNW,332,0.0,1.0,82,0.00,,,0.00,meteohub,2013-04-26 03:13:00,
2013-04-25 23:18:00,32.7,28.2,30.30,NNW,332,0.0,1.0,83,0.00,,,0.00,meteohub,2013-04-26 03:18:00,
2013-04-25 23:23:00,32.5,28.2,30.30,NNW,332,0.0,1.0,84,0.00,,,0.00,meteohub,2013-04-26 03:23:00,
2013-04-25 23:28:00,32.4,28.0,30.30,NNW,332,0.0,1.0,84,0.00,,,0.00,meteohub,2013-04-26 03:28:00,
2013-04-25 23:33:00,32.0,27.5,30.30,NNW,332,0.0,0.0,83,0.00,,,0.00,meteohub,2013-04-26 03:33:00,
2013-04-25 23:38:00,31.8,27.5,30.30,NNW,332,0.0,0.0,84,0.00,,,0.00,meteohub,2013-04-26 03:38:00,
2013-04-25 23:43:00,31.6,27.7,30.31,NNW,332,0.0,0.0,85,0.00,,,0.00,meteohub,2013-04-26 03:43:00,
2013-04-25 23:48:00,31.5,27.7,30.31,NNW,332,0.0,0.0,86,0.00,,,0.00,meteohub,2013-04-26 03:48:00,
2013-04-25 23:54:00,31.1,27.7,30.31,NNW,332,0.0,0.0,87,0.00,,,0.00,meteohub,2013-04-26 03:54:00,
2013-04-25 23:59:00,30.9,27.5,30.32,NNW,332,0.0,0.0,87,0.00,,,0.00,meteohub,2013-04-26 03:59:00,